Weather History for Twin Falls, ID

Change the Weather History Date:

Friday, July 19, 2013

  Actual Average Record
Temperature  
Mean Temperature 82 °F -  
Max Temperature 100 °F 91 °F 100 °F (2013)
Min Temperature 63 °F 59 °F 40 °F (1987)
Degree Days  
Heating Degree Days 0 0  
Month to date heating degree days 0 3  
Since 1 June heating degree days 55 90  
Since 1 July heating degree days 0 3  
Cooling Degree Days 17 10  
Month to date cooling degree days 269 156  
Year to date cooling degree days 467 265  
Since 1 June cooling degree days 442 243  
Growing Degree Days 32 (Base 50)    
Moisture  
Dew Point 32 °F    
Average Humidity 17    
Maximum Humidity 27    
Minimum Humidity 7    
Precipitation  
Precipitation 0.00 in 0.01 in 0.26 in (2004)
Month to date precipitation 0.16 0.19  
Year to date precipitation 3.19 6.45  
Sea Level Pressure  
Sea Level Pressure 29.87 in    
Wind  
Wind Speed 8 mph (WSW)    
Max Wind Speed 16 mph    
Max Gust Speed 20 mph    
Visibility 10 miles    
Events      
T = Trace of Precipitation, MM = Missing Value Source: NWS Daily Summary

Daily Weather History Graph

Daily Weather History Graph

Search for Another Location

Airport:

Trip Planner

Search our weather history database for the weather conditions in past years. The results will help you decide how hot, cold, wet, or windy it might be!

Date:

Astronomy

Jul. 19, 2013 Rise Set
Actual Time 6:17 AM MDT 9:10 PM MDT
Civil Twilight 5:44 AM MDT 9:43 PM MDT
Nautical Twilight 5:02 AM MDT 10:25 PM MDT
Astronomical Twilight 4:13 AM MDT 11:13 PM MDT
Moon 6:16 PM MDT (7/19) 3:03 AM MDT (7/19)
Length of Visible Light 15h 58m
Length of Day
14h 52m
Waxing Gibbous, 87% of the Moon is Illuminated
Jul 19
Waxing Gibbous
Jul 22
Full
Jul 29
Last Quarter
Aug 6
New
Aug 14
First Quarter

Hourly Weather History & Observations

Time (MDT) Temp. Dew Point Humidity Pressure Visibility Wind Dir Wind Speed Gust Speed Precip Events Conditions
12:53 AM 73.0 °F 28.0 °F 19% 29.90 in 10.0 mi South 15.0 mph - N/A   Clear
1:53 AM 73.0 °F 28.0 °F 19% 29.89 in 10.0 mi South 13.8 mph - N/A   Clear
2:53 AM 73.0 °F 27.0 °F 18% 29.88 in 10.0 mi South 12.7 mph - N/A   Clear
3:53 AM 66.9 °F 28.0 °F 23% 29.88 in 10.0 mi South 10.4 mph - N/A   Clear
4:53 AM 68.0 °F 26.1 °F 21% 29.89 in 10.0 mi South 12.7 mph - N/A   Clear
5:53 AM 66.9 °F 28.0 °F 23% 29.91 in 10.0 mi South 10.4 mph - N/A   Clear
6:53 AM 66.0 °F 28.9 °F 25% 29.92 in 10.0 mi SSW 5.8 mph - N/A   Clear
7:53 AM 71.1 °F 33.1 °F 25% 29.93 in 10.0 mi South 8.1 mph - N/A   Clear
8:53 AM 81.0 °F 30.0 °F 16% 29.94 in 10.0 mi SW 6.9 mph - N/A   Clear
9:53 AM 82.9 °F 33.1 °F 17% 29.95 in 10.0 mi NW 4.6 mph - N/A   Clear
10:53 AM 84.0 °F 39.0 °F 20% 29.94 in 10.0 mi NNW 8.1 mph - N/A   Clear
11:53 AM 87.1 °F 43.0 °F 21% 29.93 in 10.0 mi NNW 9.2 mph - N/A   Clear
12:53 PM 89.1 °F 42.1 °F 19% 29.91 in 10.0 mi NW 6.9 mph - N/A   Clear
1:53 PM 93.0 °F 42.1 °F 17% 29.88 in 10.0 mi NW 5.8 mph - N/A   Clear
2:53 PM 97.0 °F 35.1 °F 11% 29.85 in 10.0 mi North 6.9 mph - N/A   Clear
3:53 PM 98.1 °F 28.0 °F 8% 29.83 in 10.0 mi NNE 6.9 mph - N/A   Clear
4:53 PM 98.1 °F 33.1 °F 10% 29.82 in 10.0 mi NNW 6.9 mph - N/A   Clear
5:53 PM 99.0 °F 28.0 °F 8% 29.81 in 10.0 mi WNW 5.8 mph - N/A   Clear
6:53 PM 97.0 °F 23.0 °F 7% 29.79 in 10.0 mi WNW 6.9 mph - N/A   Clear
7:53 PM 95.0 °F 26.1 °F 9% 29.77 in 10.0 mi West 5.8 mph - N/A   Clear
8:53 PM 84.0 °F 46.0 °F 26% 29.77 in 10.0 mi South 8.1 mph - N/A   Clear
9:53 PM 84.0 °F 30.9 °F 15% 29.78 in 10.0 mi SW 6.9 mph - N/A   Clear
10:53 PM 81.0 °F 30.0 °F 16% 29.80 in 10.0 mi SW 9.2 mph - N/A   Clear
11:53 PM 72.0 °F 35.1 °F 26% 29.80 in 10.0 mi SSW 9.2 mph - N/A   Clear